Location: Blackrock Ranger Station
(36.0936°N, 118.2611°W)
Time: 08:30:30
(UTC-07:00)

AO-7 - Pass Details

Date: 22 February 2026
Orbit: 1440 x 1458 km, 102.0° (Epoch: 15 March)

Event Time Altitude Azimuth Distance (km) Brightness Sun altitude
Rises 05:32:56 0° 25° (NNE) 4,560 ? -12.7°
Reaches altitude 10° 05:35:59 10° 33° (NNE) 3,580 ? -12.0°
Maximum altitude 05:43:42 40° 100° (E) 2,026 ? -10.5°
Drops below altitude 10° 05:51:22 10° 168° (SSE) 3,569 ? -8.9°
Sets 05:54:23 0° 175° (S) 4,544 ? -8.3°
